Weather History for PASL - October, 2013

Change the Weather History Date:

Sunday, October 27, 2013

  Actual Average Record
Temperature  
Mean Temperature 44 °F -  
Max Temperature 50 °F - - ()
Min Temperature 37 °F - - ()
Degree Days  
Heating Degree Days 22    
Moisture  
Dew Point 37 °F    
Average Humidity 89    
Maximum Humidity 100    
Minimum Humidity 43    
Precipitation  
Precipitation 0.03 in - - ()
Sea Level Pressure  
Sea Level Pressure 29.79 in    
Wind  
Wind Speed 6 mph (SSE)    
Max Wind Speed 21 mph    
Max Gust Speed 33 mph    
Visibility 9 miles    
Events      
T = Trace of Precipitation, MM = Missing Value Source: NWS Daily Summary

Daily Weather History Graph

Daily Weather History Graph

Search for Another Location

Airport or City:

Trip Planner

Search our weather history database for the weather conditions in past years. The results will help you decide how hot, cold, wet, or windy it might be!

Date:

Astronomy

Oct. 27, 2013 Rise Set
Actual Time 9:46 AM AKDT 6:37 PM AKDT
Civil Twilight 8:59 AM AKDT 7:24 PM AKDT
Nautical Twilight 8:07 AM AKDT 8:16 PM AKDT
Astronomical Twilight 7:16 AM AKDT 9:06 PM AKDT
Moon 1:00 AM AKDT (10/27) 4:35 PM AKDT (10/27)
Length of Visible Light 10h 25m
Length of Day
8h 51m
Last Quarter, 42% of the Moon is Illuminated
Oct 27
Last Quarter
Nov 3
New
Nov 9
First Quarter
Nov 17
Full
Nov 25
Last Quarter

Hourly Weather History & Observations

Time (AKDT) Temp. Windchill Dew Point Humidity Pressure Visibility Wind Dir Wind Speed Gust Speed Precip Events Conditions
12:16 AM 50.0 °F - 28.4 °F 43% 29.95 in 10.0 mi SSE 20.7 mph 29.9 mph N/A   Overcast
12:36 AM 48.2 °F - 30.2 °F 50% 29.95 in 10.0 mi SE 15.0 mph 31.1 mph N/A   Mostly Cloudy
12:56 AM 46.4 °F 40.1 °F 30.2 °F 53% 29.96 in 10.0 mi SSE 15.0 mph 33.4 mph N/A   Mostly Cloudy
1:16 AM 46.4 °F 39.8 °F 32.0 °F 57% 29.96 in 10.0 mi SSE 16.1 mph 25.3 mph N/A   Overcast
1:36 AM 44.6 °F 38.4 °F 33.8 °F 66% 29.96 in 10.0 mi SSE 12.7 mph 19.6 mph N/A   Overcast
1:56 AM 42.8 °F 39.3 °F 35.6 °F 76% 29.96 in 10.0 mi South 5.8 mph - N/A   Overcast
2:16 AM 42.8 °F 39.3 °F 35.6 °F 76% 29.95 in 10.0 mi South 5.8 mph - N/A   Overcast
2:36 AM 42.8 °F 39.3 °F 35.6 °F 76% 29.94 in 10.0 mi South 5.8 mph - N/A   Overcast
2:56 AM 41.0 °F 37.1 °F 37.4 °F 87% 29.94 in 10.0 mi South 5.8 mph - N/A   Overcast
3:16 AM 41.0 °F 39.0 °F 37.4 °F 87% 29.94 in 10.0 mi South 3.5 mph - N/A   Overcast
3:36 AM 41.0 °F 38.0 °F 37.4 °F 87% 29.93 in 10.0 mi SSE 4.6 mph - N/A   Overcast
4:36 AM 39.2 °F - 37.4 °F 93% 29.93 in 10.0 mi Calm Calm - N/A   Overcast
4:56 AM 39.2 °F - 37.4 °F 93% 29.93 in 10.0 mi Calm Calm - N/A   Overcast
5:36 AM 39.2 °F - 37.4 °F 93% 29.91 in 10.0 mi Calm Calm - N/A   Overcast
5:56 AM 39.2 °F - 37.4 °F 93% 29.91 in 10.0 mi Calm Calm - N/A   Overcast
6:16 AM 39.2 °F - 37.4 °F 93% 29.91 in 10.0 mi Calm Calm - N/A   Overcast
6:36 AM 39.2 °F - 37.4 °F 93% 29.91 in 10.0 mi Calm Calm - N/A   Overcast
6:56 AM 39.2 °F - 37.4 °F 93% 29.91 in 9.0 mi Calm Calm - N/A   Overcast
7:16 AM 39.2 °F - 37.4 °F 93% 29.92 in 10.0 mi Calm Calm - N/A   Overcast
7:36 AM 39.2 °F - 37.4 °F 93% 29.91 in 10.0 mi Calm Calm - N/A   Overcast
7:56 AM 39.2 °F - 37.4 °F 93% 29.92 in 10.0 mi Calm Calm - N/A   Overcast
8:16 AM 39.2 °F - 37.4 °F 93% 29.92 in 10.0 mi Calm Calm - N/A   Overcast
8:36 AM 39.2 °F - 37.4 °F 93% 29.92 in 10.0 mi Calm Calm - N/A   Overcast
8:56 AM 37.4 °F - 37.4 °F 100% 29.91 in 10.0 mi Calm Calm - N/A   Overcast
9:16 AM 37.4 °F - 35.6 °F 93% 29.91 in 10.0 mi Calm Calm - N/A   Overcast
10:16 AM 37.4 °F - 37.4 °F 100% 29.92 in 10.0 mi Calm Calm - N/A   Overcast
10:36 AM 37.4 °F - 37.4 °F 100% 29.90 in 10.0 mi Calm Calm - N/A   Overcast
11:16 AM 39.2 °F - 37.4 °F 93% 29.90 in 10.0 mi Calm Calm - N/A   Overcast
11:36 AM 39.2 °F - 37.4 °F 93% 29.89 in 10.0 mi Calm Calm - N/A   Overcast
11:56 AM 39.2 °F 37.0 °F 37.4 °F 93% 29.89 in 10.0 mi SSE 3.5 mph - N/A   Overcast
12:16 PM 39.2 °F - 37.4 °F 93% 29.88 in 9.0 mi Calm Calm - N/A   Overcast
12:36 PM 39.2 °F - 37.4 °F 93% 29.89 in 10.0 mi Calm Calm - N/A   Overcast
1:16 PM 39.2 °F - 37.4 °F 93% 29.88 in 10.0 mi Calm Calm - N/A   Overcast
1:36 PM 39.2 °F - 37.4 °F 93% 29.87 in 10.0 mi Calm Calm - N/A   Overcast
1:56 PM 39.2 °F - 37.4 °F 93% 29.86 in 10.0 mi Calm Calm - N/A   Overcast
2:16 PM 39.2 °F - 37.4 °F 93% 29.85 in 10.0 mi Calm Calm - N/A   Mostly Cloudy
3:36 PM 41.0 °F - 37.4 °F 87% 29.80 in 10.0 mi Calm Calm - N/A   Overcast
3:56 PM 41.0 °F - 39.2 °F 93% 29.78 in 7.0 mi Calm Calm - N/A   Overcast
4:16 PM 41.0 °F - 39.2 °F 93% 29.77 in 10.0 mi Calm Calm - N/A   Overcast
4:56 PM 41.0 °F - 39.2 °F 93% 29.72 in 10.0 mi Calm Calm - N/A   Overcast
5:16 PM 41.0 °F - 39.2 °F 93% 29.72 in 10.0 mi Calm Calm - N/A   Overcast
5:36 PM 41.0 °F - 39.2 °F 93% 29.70 in 3.0 mi Calm Calm - N/A   Overcast
5:56 PM 41.0 °F - 39.2 °F 93% 29.69 in 5.0 mi Calm Calm - N/A   Overcast
6:16 PM 39.2 °F - 39.2 °F 100% 29.69 in 5.0 mi Calm Calm - N/A   Overcast
6:56 PM 39.2 °F - 39.2 °F 100% 29.65 in 7.0 mi Calm Calm - N/A   Overcast
7:16 PM 39.2 °F - 37.4 °F 93% 29.63 in 1.0 mi Calm Calm - N/A   Overcast
7:36 PM 39.2 °F - 37.4 °F 93% 29.60 in 3.0 mi Calm Calm - N/A   Overcast
7:56 PM 39.2 °F - 37.4 °F 93% 29.60 in 5.0 mi Calm Calm - N/A   Overcast
8:16 PM 39.2 °F - 37.4 °F 93% 29.57 in 10.0 mi Calm Calm - N/A   Overcast
8:36 PM 39.2 °F - 39.2 °F 100% 29.56 in 10.0 mi Calm Calm - N/A   Overcast
8:56 PM 39.2 °F - 37.4 °F 93% 29.54 in 10.0 mi Calm Calm - N/A   Overcast
9:16 PM 39.2 °F - 39.2 °F 100% 29.53 in 10.0 mi Calm Calm - N/A   Overcast
9:36 PM 39.2 °F 37.0 °F 39.2 °F 100% 29.53 in 10.0 mi NW 3.5 mph - N/A   Overcast
9:56 PM 39.2 °F - 37.4 °F 93% 29.51 in 9.0 mi Calm Calm - N/A   Overcast
10:16 PM 39.2 °F - 37.4 °F 93% 29.50 in 9.0 mi Calm Calm - 0.01 in   Overcast
10:36 PM 39.2 °F - 37.4 °F 93% 29.47 in 10.0 mi Calm Calm - 0.02 in   Overcast
10:56 PM 39.2 °F 37.0 °F 37.4 °F 93% 29.46 in 10.0 mi North 3.5 mph - 0.02 in   Overcast
11:16 PM 39.2 °F - 37.4 °F 93% 29.44 in 10.0 mi Calm Calm - N/A   Overcast
11:36 PM 39.2 °F - 37.4 °F 93% 29.42 in 10.0 mi Calm Calm - 0.01 in   Overcast
11:56 PM 39.2 °F - 37.4 °F 93% 29.41 in 10.0 mi Calm Calm - 0.01 in   Overcast